1484362800.53,9431,5.94,70894.0,-15.09,-16.03,-16.03,0,*52
1484362801.82,9432,5.94,70890.0,-15.09,-16.13,-16.13,0,*51
1484362803.09,9433,5.94,70918.0,-15.07,-16.09,-16.09,0,*5E
1484362804.35,9434,5.94,70914.5,-15.07,-16.23,-16.23,0,*59
1484362805.61,9435,5.94,70878.3,-15.09,-16.41,-16.31,0,*51
1484362806.87,9436,5.94,70846.3,-15.07,-16.13,-16.13,0,*5B
1484362808.11,9437,5.94,70806.3,-15.07,-16.41,-16.27,0,*5A
1484362809.37,9438,5.94,70796.0,-15.07,-16.13,-16.23,0,*56
1484362810.63,9439,5.94,70868.3,-15.07,-16.27,-16.27,0,*54
1484362811.91,9440,5.94,70856.3,-15.09,-16.27,-16.31,0,*53
1484362813.2,9441,5.94,70856.5,-15.09,-16.13,-16.23,0,*56
1484362814.5,9442,5.94,70878.8,-15.09,-16.13,-16.17,0,*52
1484362815.79,9443,5.94,70940.5,-15.09,-16.13,-16.13,0,*57
1484362817.08,9444,5.94,70900.0,-15.09,-16.17,-16.17,0,*50
1484362818.37,9445,5.94,70892.3,-15.09,-16.27,-16.17,0,*52
1484362819.66,9446,5.94,70898.0,-15.09,-16.17,-16.13,0,*56
1484362820.95,9447,5.94,70900.8,-15.09,-16.17,-16.17,0,*53
1484362822.24,9448,5.94,70900.8,-15.09,-16.13,-16.13,0,*5C
1484362823.51,9449,5.94,70904.5,-15.07,-16.09,-16.13,0,*58
1484362824.77,9450,5.94,70910.8,-15.07,-16.09,-16.23,0,*53
1484362826.01,9451,5.94,70872.5,-15.09,-16.41,-16.41,0,*54
1484362827.29,9452,5.94,70878.3,-15.09,-16.31,-16.31,0,*57
1484362828.57,9453,5.94,70872.5,-15.09,-16.31,-16.31,0,*56
1484362829.83,9454,5.94,70868.8,-15.07,-16.23,-16.13,0,*5C
1484362831.06,9455,5.94,70872.5,-15.09,-16.03,-16.03,0,*50
1484362832.36,9456,5.94,70876.8,-15.09,-16.17,-16.17,0,*53
1484362833.65,9457,5.94,70866.3,-15.09,-16.13,-16.13,0,*52
1484362834.85,9458,5.94,70876.5,-15.07,-16.03,-16.03,0,*53
1484362836.09,9459,5.94,70880.3,-15.07,-16.03,-16.13,0,*53
1484362837.35,9460,5.94,70854.0,-15.09,-16.03,-16.13,0,*57
1484362838.64,9461,5.94,70922.0,-15.09,-16.13,-16.17,0,*53
1484362839.84,9462,5.94,70920.5,-15.07,-15.99,-15.99,0,*5A
1484362841.04,9463,5.94,70922.8,-15.07,-15.99,-15.99,0,*5B
1484362842.24,9464,5.94,70908.5,-15.07,-15.99,-15.99,0,*5C
1484362843.44,9465,5.94,70914.8,-15.07,-15.99,-15.99,0,*5D
1484362844.67,9466,5.94,70906.8,-15.09,-16.03,-16.03,0,*50
1484362845.97,9467,5.94,70896.0,-15.09,-16.13,-16.13,0,*51
1484362847.2,9468,5.94,70906.0,-15.07,-16.09,-15.99,0,*5A
1484362848.44,9469,5.94,70896.0,-15.09,-16.03,-16.03,0,*5F
1484362849.67,9470,5.94,70892.0,-15.07,-16.09,-15.99,0,*53
1484362850.93,9471,5.94,70878.3,-15.07,-16.23,-16.23,0,*58
1484362852.21,9472,5.94,70866.3,-15.09,-16.31,-16.31,0,*55
1484362853.44,9473,5.94,70892.5,-15.07,-15.99,-16.09,0,*50
1484362854.64,9474,5.94,70886.8,-15.07,-15.99,-15.99,0,*5D
1484362855.87,9475,5.94,70874.5,-15.09,-16.03,-16.03,0,*52
1484362857.1,9476,5.94,70880.3,-15.07,-15.99,-16.09,0,*55
1484362858.36,9477,5.94,70880.8,-15.07,-16.23,-16.27,0,*5A
1484362859.65,9478,5.94,70894.3,-15.09,-16.17,-16.17,0,*5F
1484362860.92,9479,5.94,70894.8,-15.07,-16.09,-16.09,0,*50
1484362862.21,9480,6.0,70904.0,-15.09,-16.13,-16.17,0,*5C
1484362863.45,9481,5.94,70904.0,-15.07,-16.03,-16.17,0,*52
1484362864.69,9482,5.94,70884.0,-15.09,-16.41,-16.55,0,*5F
1484362865.92,9483,5.94,70884.5,-15.07,-16.27,-16.37,0,*54
1484362867.16,9484,5.94,70886.5,-15.09,-16.59,-16.59,0,*5C
1484362868.45,9485,5.94,70882.5,-15.09,-16.27,-16.31,0,*5A
1484362869.71,9486,5.94,70884.5,-15.09,-16.03,-16.17,0,*5B
1484362871.0,9487,5.94,70892.0,-15.09,-16.13,-16.13,0,*5F
1484362872.23,9488,5.94,70898.8,-15.07,-15.99,-16.09,0,*54
1484362873.47,9489,5.94,70868.0,-15.07,-16.09,-15.99,0,*55
1484362874.73,9490,5.94,70854.3,-15.07,-16.09,-16.23,0,*5F
1484362876.02,9491,5.94,70870.5,-15.09,-16.27,-16.17,0,*5B
1484362877.32,9492,6.0,70884.5,-15.09,-16.13,-16.17,0,*5F
1484362878.61,9493,5.94,70960.8,-15.09,-16.13,-16.13,0,*5A
1484362879.87,9494,5.94,70958.8,-15.09,-16.03,-16.13,0,*5C
1484362881.16,9495,5.94,70928.8,-15.09,-16.27,-16.17,0,*5F
1484362882.4,9496,5.94,70878.8,-15.09,-16.03,-16.03,0,*5F
1484362883.63,9497,5.94,70874.0,-15.07,-16.09,-15.99,0,*5A
1484362884.9,9498,5.94,70888.3,-15.07,-16.17,-16.09,0,*50
1484362886.16,9499,5.94,70886.5,-15.07,-16.13,-16.13,0,*5E
1484362887.41,9500,5.94,70884.3,-15.07,-16.27,-16.13,0,*58
1484362888.71,9501,6.0,70892.3,-15.09,-16.13,-16.17,0,*54
1484362890.01,9502,5.94,70918.8,-15.09,-16.13,-16.17,0,*57
1484362891.23,9503,5.94,70916.8,-15.07,-15.99,-16.09,0,*56
1484362892.53,9504,5.94,70936.8,-15.09,-16.13,-16.17,0,*51
1484362893.79,9505,5.94,70918.5,-15.09,-16.27,-16.41,0,*54
1484362895.08,9506,5.94,70824.3,-15.09,-16.17,-16.27,0,*54
1484362896.35,9507,5.94,70870.3,-15.07,-16.09,-16.09,0,*58
1484362897.61,9508,5.94,70876.8,-15.07,-16.09,-16.13,0,*5C
1484362898.87,9509,6.0,70900.3,-15.09,-16.03,-16.17,0,*5D
1484362900.17,9510,5.94,70914.5,-15.09,-16.13,-16.13,0,*50
1484362901.43,9511,5.94,70912.8,-15.07,-16.09,-16.09,0,*5F
1484362902.69,9512,6.0,70928.3,-15.09,-16.27,-16.41,0,*52
1484362903.94,9513,5.94,70898.3,-15.09,-16.59,-16.59,0,*53
1484362905.17,9514,5.94,70880.0,-15.07,-16.23,-16.37,0,*5F
1484362906.42,9515,5.94,70888.5,-15.07,-16.23,-16.13,0,*58
1484362907.68,9516,5.94,70886.0,-15.07,-16.13,-16.23,0,*5B
1484362908.98,9517,5.94,70890.5,-15.09,-16.13,-16.17,0,*53
1484362910.26,9518,5.94,70900.0,-15.09,-16.27,-16.27,0,*58
1484362911.53,9519,6.0,70912.3,-15.09,-16.03,-16.17,0,*5C
1484362912.79,9520,5.94,70902.8,-15.07,-16.09,-16.09,0,*5D
1484362914.06,9521,5.94,70886.5,-15.07,-16.09,-16.09,0,*5C
1484362915.32,9522,5.94,70906.0,-15.07,-16.13,-16.27,0,*58
1484362916.57,9523,5.94,70904.3,-15.09,-16.55,-16.59,0,*5C
1484362917.81,9524,5.94,70910.5,-15.09,-16.59,-16.59,0,*57
1484362919.07,9525,5.94,70928.0,-15.09,-16.31,-16.41,0,*51
1484362920.36,9526,5.94,70904.0,-15.09,-16.17,-16.27,0,*56
1484362921.64,9527,5.94,70910.0,-15.09,-16.27,-16.27,0,*54
1484362922.9,9528,6.0,70916.0,-15.09,-15.99,-16.13,0,*5A
1484362924.19,9529,5.94,70894.5,-15.09,-16.13,-16.17,0,*5E
1484362925.48,9530,5.94,70910.0,-15.09,-16.13,-16.13,0,*52
1484362926.78,9531,5.94,70872.3,-15.09,-16.13,-16.17,0,*57
1484362928.07,9532,5.94,70886.3,-15.09,-16.13,-16.27,0,*57
1484362929.36,9533,5.94,70906.3,-15.09,-16.13,-16.27,0,*56
1484362930.64,9534,6.0,70886.8,-15.09,-16.27,-16.27,0,*56
1484362931.93,9535,5.94,70886.8,-15.09,-16.27,-16.31,0,*50
1484362933.22,9536,5.94,70852.3,-15.09,-16.17,-16.27,0,*57
1484362934.48,9537,5.94,70844.5,-15.09,-16.27,-16.41,0,*55
1484362935.77,9538,5.94,70864.8,-15.09,-16.17,-16.17,0,*5A
1484362937.06,9539,5.94,70898.8,-15.09,-16.17,-16.27,0,*58
1484362938.32,9540,5.94,70904.5,-15.09,-16.03,-16.13,0,*54
1484362939.6,9541,5.94,70894.5,-15.09,-16.31,-16.27,0,*53
1484362940.86,9542,5.94,70898.8,-15.07,-16.13,-16.13,0,*59
1484362942.16,9543,5.94,70954.3,-15.09,-16.17,-16.17,0,*56
1484362943.45,9544,5.94,70926.0,-15.09,-16.27,-16.17,0,*52
1484362944.7,9545,5.94,70948.0,-15.07,-16.23,-16.23,0,*5E
1484362945.96,9546,5.94,70926.3,-15.09,-16.31,-16.41,0,*54
1484362947.24,9547,5.94,70928.3,-15.09,-16.31,-16.31,0,*52
1484362948.44,9548,5.94,70904.0,-15.07,-16.41,-16.45,0,*57
1484362949.73,9549,5.94,70924.3,-15.09,-16.31,-16.31,0,*5C
1484362951.02,9550,5.94,70912.5,-15.09,-16.13,-16.27,0,*53
1484362952.28,9551,5.94,70916.5,-15.09,-16.13,-16.03,0,*54
1484362953.54,9552,6.0,70918.0,-15.07,-16.17,-16.13,0,*5C
1484362954.84,9553,5.94,70922.3,-15.09,-16.13,-16.17,0,*53
1484362956.12,9554,5.94,70916.3,-15.09,-16.17,-16.27,0,*53
1484362957.38,9555,6.0,70898.8,-15.07,-16.13,-16.23,0,*5C
1484362958.68,9556,5.94,70930.3,-15.09,-16.13,-16.13,0,*52
1484362959.91,9557,5.94,70914.3,-15.09,-16.03,-16.03,0,*53
1484362961.15,9558,5.94,70934.5,-15.09,-16.03,-16.03,0,*5C
1484362962.44,9559,5.94,70946.8,-15.09,-16.17,-16.13,0,*59
1484362963.7,9560,6.0,70948.8,-15.07,-16.13,-16.27,0,*5E
1484362964.99,9561,5.94,70954.8,-15.09,-16.17,-16.17,0,*56
1484362966.25,9562,5.94,70936.0,-15.09,-16.31,-16.41,0,*52
1484362967.53,9563,6.0,70942.0,-15.09,-16.27,-16.31,0,*53
1484362968.8,9564,5.94,70954.0,-15.09,-16.13,-16.03,0,*52
1484362970.09,9565,5.94,70982.3,-15.09,-16.13,-16.17,0,*56
1484362971.33,9566,5.94,70966.3,-15.09,-16.45,-16.41,0,*55
1484362972.62,9567,5.94,70952.3,-15.09,-16.69,-16.69,0,*50
1484362973.88,9568,5.94,70900.3,-15.13,-16.69,-16.83,0,*50
1484362975.12,9569,5.94,70900.3,-15.13,-16.59,-16.59,0,*55
1484362976.36,9570,6.0,70910.0,-15.13,-16.41,-16.45,0,*59
1484362977.62,9571,5.94,70896.5,-15.13,-16.31,-16.41,0,*5B
1484362978.87,9572,6.0,70878.8,-15.15,-16.31,-16.23,0,*5A
1484362980.16,9573,5.94,70864.3,-15.13,-16.13,-16.27,0,*59
1484362981.45,9574,5.94,70876.3,-15.13,-16.17,-16.27,0,*5A
1484362982.74,9575,6.0,70882.8,-15.13,-16.17,-16.27,0,*5B
1484362984.0,9576,5.94,70962.5,-15.15,-16.17,-16.31,0,*59
1484362985.29,9577,6.0,70944.8,-15.13,-16.27,-16.27,0,*5A
1484362986.58,9578,6.0,70946.3,-15.09,-16.13,-16.17,0,*5A
1484362987.82,9579,5.94,70944.0,-15.09,-16.03,-16.03,0,*5F
1484362989.08,9580,5.94,70954.8,-15.09,-16.03,-16.13,0,*58
1484362990.37,9581,6.0,70950.8,-15.09,-16.13,-16.13,0,*58
1484362991.66,9582,5.94,70940.3,-15.09,-16.13,-16.13,0,*5B
1484362992.95,9583,6.0,70938.3,-15.09,-16.13,-16.13,0,*5A
1484362994.24,9584,5.94,70938.5,-15.09,-16.27,-16.17,0,*5E
1484362995.54,9585,6.0,70926.3,-15.09,-16.13,-16.13,0,*5C
1484362996.8,9586,6.0,70944.5,-15.09,-16.17,-16.41,0,*5C
1484362998.09,9587,6.0,70944.3,-15.09,-16.13,-16.27,0,*59
1484362999.38,9588,6.0,70968.3,-15.09,-16.13,-16.13,0,*51
1484363000.67,9589,6.0,70974.5,-15.09,-16.27,-16.31,0,*57
1484363001.92,9590,5.94,70964.0,-15.09,-16.31,-16.41,0,*5F
1484363003.17,9591,5.94,70882.8,-15.09,-16.45,-16.59,0,*54
1484363004.42,9592,5.94,70926.8,-15.09,-16.31,-16.41,0,*5D
1484363005.68,9593,6.0,70912.3,-15.09,-16.31,-16.45,0,*58
1484363006.96,9594,5.94,70906.8,-15.09,-16.27,-16.27,0,*5C
1484363008.25,9595,5.94,70910.8,-15.09,-16.17,-16.13,0,*59
1484363009.54,9596,5.94,70956.0,-15.13,-16.13,-16.13,0,*55
1484363010.83,9597,5.94,70940.8,-15.09,-16.27,-16.13,0,*58
1484363012.12,9598,6.0,70942.0,-15.09,-16.13,-16.17,0,*54
1484363013.42,9599,5.94,70950.0,-15.09,-16.13,-16.13,0,*51
1484363014.71,9600,5.94,70952.0,-15.09,-16.17,-16.17,0,*52
1484363015.97,9601,6.0,70942.5,-15.09,-16.27,-16.41,0,*53
1484363017.2,9602,5.94,70936.5,-15.09,-16.45,-16.45,0,*50
1484363018.44,9603,5.94,70946.0,-15.09,-16.45,-16.55,0,*50
1484363019.71,9604,6.0,70944.0,-15.09,-16.55,-16.69,0,*59
1484363020.95,9605,6.0,70956.0,-15.09,-16.55,-16.59,0,*5B
1484363022.22,9606,6.0,70958.8,-15.13,-16.69,-16.59,0,*5C
1484363023.48,9607,6.0,70940.3,-15.13,-16.59,-16.69,0,*5D
1484363024.72,9608,6.0,70916.8,-15.13,-16.45,-16.55,0,*50
1484363025.95,9609,6.0,70910.5,-15.13,-16.45,-16.45,0,*50
1484363027.21,9610,5.94,70856.5,-15.13,-16.31,-16.41,0,*5F
1484363028.49,9611,6.0,70944.5,-15.13,-16.31,-16.31,0,*59
1484363029.75,9612,6.0,70934.0,-15.15,-16.17,-16.23,0,*5B
1484363031.05,9613,6.0,70938.5,-15.13,-16.13,-16.13,0,*5B
1484363032.33,9614,6.0,70956.0,-15.13,-16.17,-16.27,0,*5F
1484363033.63,9615,6.0,70950.0,-15.13,-16.13,-16.27,0,*5A
1484363034.88,9616,6.0,70912.8,-15.15,-16.23,-16.23,0,*58
1484363036.18,9617,6.0,70894.5,-15.13,-16.17,-16.17,0,*5F
1484363037.47,9618,6.0,70930.0,-15.13,-16.13,-16.17,0,*54
1484363038.74,9619,5.94,70916.8,-15.13,-16.03,-16.17,0,*54
1484363040.0,9620,5.94,70910.5,-15.13,-16.31,-16.41,0,*5C
1484363041.25,9621,6.0,70920.8,-15.15,-16.23,-16.31,0,*5F
1484363042.54,9622,5.94,70924.0,-15.13,-16.13,-16.13,0,*59
1484363043.8,9623,6.0,70932.0,-15.15,-16.31,-16.31,0,*5E
1484363045.06,9624,5.94,70914.0,-15.13,-16.31,-16.41,0,*58
1484363046.32,9625,6.0,70904.5,-15.15,-16.17,-16.23,0,*5F
1484363047.61,9626,6.0,70878.5,-15.09,-16.13,-16.13,0,*56
1484363048.91,9627,6.0,70878.8,-15.13,-16.13,-16.17,0,*58
1484363050.17,9628,5.94,70886.8,-15.15,-16.13,-16.23,0,*56
1484363051.45,9629,6.0,70896.3,-15.13,-16.27,-16.27,0,*52
1484363052.74,9630,6.0,70890.8,-15.13,-16.27,-16.31,0,*5D
1484363054.02,9631,6.0,70890.5,-15.13,-16.27,-16.31,0,*5C
1484363055.32,9632,6.0,70892.0,-15.13,-16.17,-16.17,0,*58
1484363056.58,9633,6.0,70898.8,-15.13,-16.03,-16.17,0,*5C
1484363057.87,9634,6.0,70908.0,-15.13,-16.13,-16.27,0,*59
1484363059.13,9635,6.0,70904.3,-15.13,-16.27,-16.45,0,*5B
1484363060.38,9636,6.0,70904.8,-15.15,-16.31,-16.31,0,*5A
1484363061.61,9637,6.0,70884.5,-15.15,-16.31,-16.37,0,*5D
1484363062.9,9638,6.0,70896.8,-15.13,-16.27,-16.27,0,*52
1484363064.19,9639,6.0,70908.0,-15.13,-16.27,-16.17,0,*50
1484363065.47,9640,6.0,70906.0,-15.13,-16.27,-16.31,0,*5A
1484363066.76,9641,6.0,70900.5,-15.13,-16.27,-16.17,0,*5F
1484363067.99,9642,6.0,70892.8,-15.13,-16.45,-16.45,0,*5F
1484363069.28,9643,5.94,70904.3,-15.13,-16.17,-16.23,0,*59
1484363070.57,9644,6.0,70928.8,-15.13,-16.17,-16.17,0,*59
1484363071.87,9645,6.0,70920.3,-15.13,-16.13,-16.13,0,*58
1484363073.15,9646,6.0,70904.5,-15.09,-16.27,-16.27,0,*50
1484363074.44,9647,6.0,70898.8,-15.09,-16.17,-16.17,0,*51
1484363075.74,9648,5.94,70926.8,-15.13,-16.13,-16.17,0,*51
1484363077.0,9649,6.0,70894.3,-15.13,-16.31,-16.41,0,*53
1484363078.24,9650,6.0,70912.8,-15.09,-16.41,-16.41,0,*57
1484363079.5,9651,6.0,70878.3,-15.09,-16.41,-16.51,0,*57
1484363080.79,9652,5.94,70898.0,-15.13,-16.17,-16.27,0,*5D
1484363082.08,9653,6.0,70898.3,-15.13,-16.27,-16.31,0,*58
1484363083.34,9654,6.0,70916.8,-15.13,-16.41,-16.31,0,*5F
1484363084.63,9655,6.0,70916.8,-15.13,-16.27,-16.17,0,*5A
1484363085.91,9656,6.0,70934.0,-15.13,-16.31,-16.31,0,*5A
1484363087.19,9657,6.0,70934.8,-15.13,-16.31,-16.27,0,*5C
1484363088.48,9658,6.0,70948.0,-15.13,-16.17,-16.27,0,*57
1484363089.76,9659,6.0,70946.5,-15.13,-16.31,-16.31,0,*55
1484363091.05,9660,6.0,70914.5,-15.13,-16.31,-16.31,0,*5F
1484363092.34,9661,6.0,70918.0,-15.13,-16.17,-16.13,0,*5A
1484363093.62,9662,6.0,70914.0,-15.13,-16.17,-16.27,0,*5E
1484363094.86,9663,6.0,70920.5,-15.09,-16.03,-16.03,0,*57
1484363096.12,9664,6.0,70912.8,-15.07,-16.13,-16.13,0,*5E
1484363097.38,9665,6.0,70922.8,-15.13,-16.31,-16.41,0,*5D
1484363098.67,9666,6.0,70926.0,-15.13,-16.17,-16.27,0,*5A
1484363099.95,9667,6.0,70928.3,-15.09,-16.27,-16.27,0,*53
1484363101.24,9668,6.0,70920.8,-15.09,-16.27,-16.31,0,*5B
1484363102.5,9669,6.0,70916.8,-15.09,-16.31,-16.41,0,*5A
1484363103.73,9670,6.0,70922.5,-15.13,-16.45,-16.45,0,*5E
1484363104.96,9671,6.0,70936.8,-15.13,-16.45,-16.45,0,*5F
1484363106.22,9672,6.0,70934.5,-15.13,-16.31,-16.41,0,*5B
1484363107.47,9673,6.0,70928.5,-15.13,-16.31,-16.45,0,*5E
1484363108.75,9674,6.0,70906.8,-15.13,-16.27,-16.31,0,*5D
1484363110.05,9675,6.0,70904.0,-15.13,-16.13,-16.17,0,*5F
1484363111.34,9676,5.94,70874.3,-15.13,-16.27,-16.27,0,*58
1484363112.59,9677,6.0,70926.8,-15.15,-16.31,-16.31,0,*5F
1484363113.88,9678,6.0,70930.3,-15.13,-16.27,-16.17,0,*55
1484363115.16,9679,6.0,70934.8,-15.13,-16.31,-16.31,0,*57
1484363116.42,9680,6.0,70944.5,-15.13,-16.27,-16.41,0,*51
1484363117.67,9681,6.0,70870.8,-15.13,-16.55,-16.55,0,*50
1484363118.92,9682,6.0,70884.8,-15.13,-16.31,-16.41,0,*54
1484363120.13,9683,6.0,70852.5,-15.15,-16.37,-16.45,0,*51
1484363121.42,9684,6.0,70864.0,-15.13,-16.27,-16.17,0,*56
1484363122.71,9685,6.0,70866.8,-15.13,-16.27,-16.27,0,*54
1484363124.0,9686,6.0,70862.3,-15.13,-16.13,-16.13,0,*57
1484363125.25,9687,6.0,70886.8,-15.15,-16.31,-16.31,0,*50
1484363126.55,9688,6.0,70916.5,-15.13,-16.17,-16.17,0,*59
1484363127.83,9689,6.0,70906.3,-15.09,-16.27,-16.27,0,*53
1484363129.12,9690,6.0,70930.8,-15.13,-16.17,-16.17,0,*50
1484363130.42,9691,6.0,70926.3,-15.13,-16.13,-16.17,0,*55
1484363131.71,9692,6.0,70934.0,-15.13,-16.17,-16.17,0,*52
1484363133.01,9693,6.0,70940.3,-15.13,-16.17,-16.17,0,*53
1484363134.29,9694,6.0,70934.8,-15.13,-16.31,-16.31,0,*54
1484363135.52,9695,6.0,70934.3,-15.15,-16.75,-16.65,0,*52
1484363136.81,9696,6.0,70926.5,-15.13,-16.69,-16.69,0,*56
1484363138.06,9697,6.0,70912.0,-15.13,-16.75,-16.75,0,*57
1484363139.27,9698,6.0,70852.8,-15.15,-16.79,-16.79,0,*5E
1484363140.49,9699,6.0,70840.5,-15.15,-16.79,-16.75,0,*53
1484363141.69,9700,6.0,70894.0,-15.15,-16.45,-16.45,0,*5E
1484363142.9,9701,6.0,70880.3,-15.15,-16.37,-16.45,0,*5A
1484363144.11,9702,6.0,70862.8,-15.15,-16.59,-16.59,0,*5C
1484363145.37,9703,6.0,70878.8,-15.15,-16.31,-16.31,0,*5D
1484363146.63,9704,6.0,70890.0,-15.15,-16.23,-16.17,0,*5D
1484363147.84,9705,6.0,70896.3,-15.15,-16.45,-16.37,0,*5E
1484363149.13,9706,6.0,70854.3,-15.13,-16.17,-16.27,0,*5D
1484363150.42,9707,6.0,70908.3,-15.13,-16.17,-16.17,0,*5F
1484363151.68,9708,6.0,70912.0,-15.15,-16.17,-16.23,0,*51
1484363152.94,9709,6.0,70906.5,-15.15,-16.23,-16.17,0,*50
1484363154.21,9710,6.0,70890.5,-15.13,-16.03,-16.13,0,*58
1484363155.46,9711,6.0,70892.8,-15.15,-16.23,-16.23,0,*5E
1484363156.73,9712,6.0,70896.0,-15.15,-16.09,-16.23,0,*55
1484363157.99,9713,6.0,70888.0,-15.13,-16.31,-16.41,0,*5D
1484363159.21,9714,6.0,70884.5,-15.15,-16.31,-16.37,0,*5D
1484363160.42,9715,6.0,70894.5,-15.15,-16.37,-16.37,0,*5A
1484363161.63,9716,6.0,70902.3,-15.15,-16.45,-16.45,0,*59
1484363162.83,9717,6.0,70872.3,-15.15,-16.45,-16.45,0,*58
1484363164.04,9718,6.0,70884.3,-15.15,-16.45,-16.45,0,*57
1484363165.24,9719,6.0,70886.8,-15.15,-16.37,-16.45,0,*53
1484363166.51,9720,6.0,70848.0,-15.17,-16.51,-16.59,0,*56
1484363167.76,9721,6.0,70852.3,-15.15,-16.31,-16.31,0,*5D
1484363169.03,9722,6.0,70894.8,-15.15,-16.17,-16.17,0,*5E
1484363170.29,9723,6.0,70898.3,-15.15,-16.23,-16.17,0,*58
1484363171.55,9724,6.0,70910.8,-15.15,-16.23,-16.31,0,*5B
1484363172.81,9725,6.0,70890.0,-15.15,-16.17,-16.23,0,*5E
1484363174.07,9726,6.0,70894.5,-15.15,-16.23,-16.31,0,*59
1484363175.36,9727,6.0,70858.0,-15.17,-16.17,-16.17,0,*59
1484363176.64,9728,6.0,70908.8,-15.17,-16.17,-16.23,0,*51
1484363177.92,9729,6.0,70918.3,-15.17,-16.23,-16.31,0,*54
1484363179.18,9730,6.0,70910.8,-15.15,-16.31,-16.31,0,*5D
1484363180.41,9731,6.0,70910.8,-15.15,-16.23,-16.37,0,*59
1484363181.67,9732,6.0,70898.0,-15.15,-16.17,-16.23,0,*58
1484363182.93,9733,6.0,70898.3,-15.15,-16.23,-16.23,0,*5E
1484363184.22,9734,6.0,70888.0,-15.13,-16.13,-16.17,0,*5B
1484363185.45,9735,6.0,70888.5,-15.15,-16.31,-16.45,0,*5B
1484363186.68,9736,6.0,70888.0,-15.15,-16.31,-16.37,0,*5D
1484363187.96,9737,6.0,70894.5,-15.17,-16.23,-16.31,0,*5B
1484363189.21,9738,6.0,70916.3,-15.17,-16.31,-16.37,0,*51
1484363190.42,9739,6.0,70894.3,-15.15,-16.37,-16.37,0,*54
1484363191.63,9740,6.0,70874.3,-15.15,-16.37,-16.45,0,*5F
1484363192.86,9741,6.0,70882.0,-15.15,-16.37,-16.31,0,*5D
1484363194.12,9742,5.94,70886.0,-15.15,-16.23,-16.31,0,*5B
1484363195.38,9743,6.0,70884.3,-15.15,-16.09,-16.31,0,*52
1484363196.64,9744,6.0,70878.0,-15.15,-16.23,-16.31,0,*5D
1484363197.87,9745,6.0,70880.0,-15.17,-16.45,-16.45,0,*5D
1484363199.1,9746,6.0,70872.5,-15.17,-16.45,-16.37,0,*5B
1484363200.36,9747,6.0,70862.8,-15.17,-16.37,-16.51,0,*5F
1484363201.61,9748,6.0,70866.3,-15.17,-16.23,-16.37,0,*55
1484363202.9,9749,6.0,70898.8,-15.17,-16.09,-16.23,0,*59
1484363204.18,9750,6.0,70920.0,-15.17,-16.23,-16.23,0,*59
1484363205.42,9751,6.0,70890.0,-15.17,-16.45,-16.59,0,*55
1484363206.64,9752,6.0,70884.5,-15.15,-16.59,-16.59,0,*59
1484363207.9,9753,6.0,70846.0,-15.15,-16.65,-16.65,0,*58
1484363209.16,9754,6.0,70874.5,-15.17,-16.45,-16.51,0,*58
1484363210.39,9755,6.0,70882.0,-15.19,-16.23,-16.41,0,*56
1484363211.68,9756,6.0,70860.3,-15.17,-16.17,-16.31,0,*5B
1484363212.91,9757,6.0,70840.8,-15.19,-16.23,-16.37,0,*55
1484363214.12,9758,6.0,70850.0,-15.19,-16.37,-16.37,0,*5F
1484363215.4,9759,6.0,70884.0,-15.17,-16.23,-16.31,0,*53
1484363216.65,9760,6.0,70872.8,-15.17,-16.23,-16.37,0,*5F
1484363217.94,9761,6.0,70880.5,-15.17,-16.09,-16.23,0,*53
1484363219.21,9762,6.0,70884.8,-15.15,-16.09,-16.09,0,*5A
1484363220.5,9763,6.0,70860.5,-15.17,-16.09,-16.17,0,*56
1484363221.78,9764,6.0,70870.0,-15.17,-16.31,-16.23,0,*5D
1484363223.07,9765,6.0,70862.8,-15.17,-16.17,-16.23,0,*58
1484363224.36,9766,6.0,70918.0,-15.17,-16.09,-16.17,0,*53
1484363225.65,9767,6.0,70890.3,-15.17,-16.17,-16.17,0,*5D
1484363226.89,9768,6.0,70864.5,-15.17,-16.37,-16.37,0,*52
1484363228.12,9769,6.0,70872.5,-15.17,-16.37,-16.45,0,*56
1484363229.37,9770,6.0,70848.3,-15.17,-16.37,-16.51,0,*5B
1484363230.62,9771,6.0,70878.0,-15.17,-16.31,-16.37,0,*5C
1484363231.91,9772,6.0,70888.3,-15.17,-16.09,-16.23,0,*51
1484363233.19,9773,6.0,70892.8,-15.17,-16.31,-16.31,0,*58
1484363234.42,9774,6.0,70884.5,-15.17,-16.37,-16.45,0,*5A
1484363235.66,9775,6.0,70876.0,-15.17,-16.59,-16.59,0,*5E
1484363236.94,9776,6.0,70876.8,-15.17,-16.51,-16.65,0,*5A
1484363238.23,9777,6.0,70886.8,-15.17,-16.51,-16.65,0,*5B
1484363239.47,9778,6.0,70850.8,-15.17,-16.75,-16.75,0,*53
1484363240.73,9779,6.0,70840.3,-15.19,-16.65,-16.65,0,*5C
1484363241.98,9780,6.0,70876.8,-15.17,-16.23,-16.45,0,*54
1484363243.22,9781,6.0,70884.8,-15.17,-16.45,-16.37,0,*50
1484363244.47,9782,6.0,70888.0,-15.19,-16.51,-16.65,0,*5F
1484363245.71,9783,6.0,70880.8,-15.19,-16.55,-16.65,0,*5A
1484363246.95,9784,6.0,70874.0,-15.19,-16.55,-16.65,0,*5D
1484363248.19,9785,6.0,70842.0,-15.19,-16.55,-16.69,0,*50
1484363249.47,9786,6.0,70870.0,-15.17,-16.51,-16.65,0,*55
1484363250.71,9787,6.0,70860.0,-15.19,-16.51,-16.55,0,*59
1484363251.97,9788,6.0,70852.5,-15.17,-16.45,-16.51,0,*59
1484363253.21,9789,6.0,70860.8,-15.17,-16.31,-16.45,0,*5E
1484363254.47,9790,6.0,70872.3,-15.19,-16.27,-16.51,0,*5A
1484363255.69,9791,6.0,70868.8,-15.19,-16.41,-16.55,0,*5F
1484363256.94,9792,6.0,70864.8,-15.19,-16.51,-16.65,0,*5E
1484363258.16,9793,6.0,70874.0,-15.19,-16.37,-16.41,0,*59
1484363259.37,9794,6.0,70882.5,-15.19,-16.37,-16.37,0,*5F
1484363260.57,9795,6.0,70886.0,-15.19,-16.37,-16.37,0,*5E
1484363261.81,9796,6.0,70874.3,-15.19,-16.51,-16.55,0,*59
1484363263.05,9797,6.0,70866.0,-15.19,-16.51,-16.55,0,*58
1484363264.26,9798,6.0,70856.0,-15.19,-16.37,-16.55,0,*57
1484363265.47,9799,6.0,70852.0,-15.19,-16.41,-16.41,0,*52
1484363266.71,9800,6.0,70854.3,-15.19,-16.41,-16.51,0,*5C
1484363267.94,9801,6.0,70856.0,-15.19,-16.37,-16.51,0,*5C
1484363269.18,9802,6.0,70866.5,-15.19,-16.27,-16.41,0,*5F
1484363270.39,9803,6.0,70864.3,-15.19,-16.37,-16.41,0,*5F
1484363271.6,9804,6.0,70878.8,-15.19,-16.37,-16.41,0,*58
1484363272.84,9805,6.0,70872.8,-15.19,-16.37,-16.27,0,*59
1484363274.11,9806,6.0,70872.8,-15.21,-16.55,-16.69,0,*5F
1484363275.34,9807,6.0,70878.0,-15.19,-16.69,-16.79,0,*5B
1484363276.58,9808,6.0,70880.5,-15.19,-16.65,-16.79,0,*58
1484363277.85,9809,6.0,70898.5,-15.21,-16.65,-16.79,0,*52
1484363279.12,9810,6.0,70884.3,-15.21,-16.65,-16.79,0,*5A
1484363280.39,9811,6.0,70878.8,-15.21,-16.55,-16.69,0,*59
1484363281.63,9812,6.0,70864.8,-15.21,-16.79,-16.83,0,*50
1484363282.85,9813,6.0,70870.3,-15.23,-16.83,-16.83,0,*56
1484363284.12,9814,6.0,70852.5,-15.21,-16.69,-16.79,0,*52
1484363285.38,9815,6.0,70862.8,-15.21,-16.65,-16.79,0,*5F
1484363286.6,9816,6.0,70874.8,-15.23,-16.59,-16.59,0,*53
1484363287.87,9817,6.0,70892.0,-15.21,-16.69,-16.79,0,*51
1484363289.11,9818,6.0,70896.5,-15.23,-16.69,-16.75,0,*50
1484363290.33,9819,6.0,70822.5,-15.23,-16.75,-16.83,0,*55
1484363291.54,9820,6.0,70764.0,-15.23,-16.83,-16.75,0,*5F
1484363292.78,9821,6.0,70814.0,-15.23,-16.55,-16.69,0,*58
1484363294.0,9822,6.0,70876.8,-15.23,-16.45,-16.55,0,*55
1484363295.27,9823,6.0,70868.5,-15.21,-16.65,-16.55,0,*54
1484363296.51,9824,6.0,70820.0,-15.23,-16.69,-16.75,0,*5F
1484363297.73,9825,6.0,70836.8,-15.23,-16.55,-16.59,0,*5F
1484363298.94,9826,6.0,70850.5,-15.23,-16.41,-16.41,0,*50
1484363300.18,9827,6.0,70860.0,-15.21,-16.37,-16.37,0,*53
1484363301.39,9828,6.0,70874.0,-15.23,-16.45,-16.55,0,*5F
1484363302.64,9829,6.0,70876.5,-15.21,-16.41,-16.55,0,*58
1484363303.88,9830,6.0,70862.5,-15.21,-16.41,-16.41,0,*55
1484363305.1,9831,6.0,70854.8,-15.23,-16.41,-16.41,0,*56
1484363306.39,9832,6.0,70824.5,-15.21,-16.23,-16.31,0,*54
1484363307.65,9833,6.0,70856.8,-15.23,-16.27,-16.31,0,*53
1484363308.92,9834,6.0,70848.8,-15.25,-16.13,-16.17,0,*51
1484363310.21,9835,6.0,70770.3,-15.21,-16.09,-16.13,0,*5B
1484363311.48,9836,6.0,70806.0,-15.23,-16.17,-16.17,0,*51
1484363312.75,9837,6.0,70876.3,-15.23,-16.13,-16.17,0,*54
1484363314.04,9838,6.0,70888.8,-15.21,-16.13,-16.13,0,*5D
1484363315.3,9839,6.0,70916.0,-15.23,-16.31,-16.31,0,*5E
1484363316.53,9840,6.0,70906.0,-15.23,-16.31,-16.41,0,*57
1484363317.74,9841,6.0,70882.8,-15.23,-16.55,-16.55,0,*51